Powrót do katalogu

STARLINK-34654

AktywnyŁącznośćSSO
NORAD 64858·PAYLOAD·🇺🇸 United States

Wystrzelony Jul 19, 2025 z Vandenberg Space Force Base

Loading…

Następne Przeloty (najbliższe 24 godziny)

TLE

ŚwieżeSource: CelesTrak SupGP

Epoka: Sep 15, 2026, 03:02 UTC

1 64858C 25152S   26258.12687500 -.00020647  00000+0 -64082-3 0  2589
2 64858  97.2842 108.7222 0001891  95.8516  69.6270 15.33454489    17

Śledź STARLINK-34654 w czasie rzeczywistym z AllMySat

Download on the App Store